Das Wetter in  D-61279 Heinzenberg / Taunus





Wetter Minimum- & Maximum-Werte im April 2011

Standort: Heinzenberg / Taunus - Höhe 297 m         8 24' 1" Ost 50 21' 51" Nord
(   3-stündige Aktualisierung    letzte Aktualisierung um 19:04 am 30.04.2011  )


Messgrösse

Minimum

Maximum

Durchschnitt

Temperatur West /
Luftfeuchte West
Anklicken für Monats-Diagramm

-0,8 C

07:04
15.04.2011

22 %

16:36
23.04.2011

27,8 C

17:55
22.04.2011

98 %

08:41
02.04.2011

Temp

12,1 C

Feuchte

66 %

Temperatur Ost /
Luftfeuchte Ost
Anklicken für Monats-Diagramm

-0,7 C

07:09
15.04.2011

--

--
--

26,4 C

14:51
23.04.2011

--

--
--

12,0 C

--

Luftdruck Anklicken für Monats-Diagramm

1006,2 hPa

15:28
30.04.2011

1029,9 hPa

12:05
06.04.2011

1019,1 hPa

Taupunkt

-2,8 C

07:04
15.04.2011

13,8 C

17:05
06.04.2011

5,0 C

Windchill
( gefühlte Temperatur )

-7,3 C

08:17
13.04.2011

27,8 C

17:55
22.04.2011

10,5 C

Windgeschwindigkeit /
Windrichtung
Anklicken für Monats-Diagramm

---

55,7 km/h / W-NW

04:56
12.04.2011

8,1 km/h
SO

Helligkeit /
Sonnenschein
Anklicken für Monats-Diagramm
Anklicken für Monats-Diagramm

Sonnenschein:

206:19 Stunden

Max: 12:00 Std am
19.04.2011

103,0 klux

12:36
12.04.2011

33 klux

Solarstrahlung Anklicken für Monats-Diagramm

---

705 W/m

12:36
12.04.2011

245 W/m

Regenmenge
    April 2011
Anklicken für Monats-Diagramm

Insgesamt 20,8 l/m

in 20:08 Stunden
an 10 Tagen

7,6 l/m

17:03
30.04.2011

Gesamtmenge

20,8 l/m

Regen-Tage
    April 2011
Anklicken für Monats-Diagramm

>   0 mm/Tag

>   2 mm/Tag

>   5 mm/Tag

> 10 mm/Tag

> 20 mm/Tag

10 Tage     
4 Tage     
2 Tage     
0 Tage     
0 Tage     

Eisige Tage April 2011 / 2010

Tmin ≤ -10C     

0 Tage

/

0 Tage

Eistage April 2011 / 2010

Tmax <     0C     

0 Tage

/

0 Tage

Frosttage April 2011 / 2010

Tmin ≤     0C     

  1 Tag

/

5 Tage

Kalte Tage April 2011 / 2010

Tmax <   10C     

0 Tage

/

3 Tage

Warme Tage April 2011 / 2010

Tmax ≥   20C     

17 Tage

/

7 Tage

Sommertage April 2011 / 2010

Tmax ≥   25C     

5 Tage

/

  1 Tag

Heisse Tage April 2011 / 2010

Tmax ≥   30C     

0 Tage

/

0 Tage


Monatsdiagramm April 2011

Die Kurven zeigen den Durchschnittswert des jeweiligen Tages an


Wetter-Monatsübersicht April 2011
Datum
  Temperatur
   Luftdruck
   Wind
  Regen
   Luftfeuchte
   Helligkeit

Sonnen-
schein


Temp.

Min.
Temp.

Max.
Temp.


Luftdruck

Min.
Luftdruck

Max.
Luftdruck

-Geschw.
Haupt-Richtg.

Max.
Wind

Menge /
Dauer


Feuchte

Min.
Feuchte

Max.
Feuchte


Helligkeit

Max.
Helligkeit

1.
April
13,5 C9,4 C
23:56
16,7 C
18:41
1022,3 hPa1019,6 hPa
00:16
1024,2 hPa
23:56
21,1 km/h
W
38,1 km/h
12:16  
---
80 %66 %
18:41
90 %
23:56
23,3 klux86,8 klux
11:56
2:21 Std 
2.
April
14,1 C4,5 C
07:36
25,6 C
17:41
1017,9 hPa1012,0 hPa
18:21
1023,4 hPa
02:41
7,7 km/h
SO
33,0 km/h
15:06  
---
69 %29 %
16:56
98 %
08:41
41,4 klux71,8 klux
13:26
10:20 Std 
3.
April
11,7 C6,8 C
06:07
18,0 C
15:57
1012,7 hPa1010,7 hPa
15:57
1014,8 hPa
23:48
5,5 km/h
W-NW
31,8 km/h
17:12  
5,5 l/m
3:56 Stunden
84 %66 %
11:02
97 %
22:12
21,5 klux73,8 klux
13:07
2:45 Std 
4.
April
8,9 C6,4 C
06:43
14,3 C
17:43
1020,8 hPa1013,8 hPa
01:03
1025,4 hPa
23:54
10,4 km/h
W
26,8 km/h
03:08  
2,7 l/m
5:45 Stunden
89 %65 %
18:03
98 %
01:18
15,2 klux82,8 klux
15:48
1:45 Std 
5.
April
9,2 C1,8 C
07:19
14,5 C
14:39
1026,8 hPa1024,7 hPa
16:49
1029,0 hPa
08:49
12,4 km/h
W-SW
33,9 km/h
14:39  
---
1:31 Stunden
74 %51 %
16:54
93 %
07:14
25,8 klux72,5 klux
12:19
2:36 Std 
6.
April
13,8 C8,8 C
00:00
22,0 C
17:10
1028,0 hPa1026,8 hPa
17:10
1029,9 hPa
12:05
12,0 km/h
W-SW
31,9 km/h
15:40  
---
5 Minuten
79 %58 %
17:15
90 %
00:00
27,8 klux91,2 klux
13:10
5:40 Std 
7.
April
14,9 C8,4 C
06:46
21,5 C
17:26
1024,3 hPa1021,7 hPa
17:26
1027,2 hPa
02:31
16,5 km/h
NW
39,6 km/h
13:21  
---
69 %29 %
16:46
98 %
08:36
41,1 klux73,9 klux
13:01
10:20 Std 
8.
April
12,1 C6,2 C
07:32
17,7 C
17:32
1024,3 hPa1021,1 hPa
17:32
1026,7 hPa
07:32
14,1 km/h
W-NW
33,1 km/h
17:37  
---
67 %44 %
17:37
86 %
07:42
42,1 klux74,0 klux
13:22
10:10 Std 
9.
April
11,8 C5,6 C
07:38
18,8 C
17:33
1023,7 hPa1022,0 hPa
17:33
1025,7 hPa
08:13
8,1 km/h
W-NW
27,1 km/h
14:53  
---
59 %26 %
18:38
89 %
07:48
39,1 klux76,1 klux
13:08
9:00 Std 
10.
April
11,6 C2,3 C
07:09
22,9 C
17:19
1024,1 hPa1021,5 hPa
17:19
1026,1 hPa
07:09
3,9 km/h
SO
16,6 km/h
17:49  
---
59 %29 %
17:19
86 %
08:54
41,3 klux72,7 klux
13:14
11:15 Std 
11.
April
13,7 C3,8 C
07:15
24,2 C
17:25
1020,7 hPa1015,4 hPa
19:00
1024,9 hPa
06:55
6,7 km/h
W
32,1 km/h
16:55  
---
59 %28 %
17:05
87 %
07:40
38,5 klux86,0 klux
13:15
8:15 Std 
12.
April
8,8 C4,1 C
23:47
15,2 C
00:01
1021,0 hPa1015,4 hPa
02:41
1025,9 hPa
22:27
20,3 km/h
W-NW
55,7 km/h
04:56  
1,2 l/m
2:30 Stunden
72 %55 %
17:51
90 %
11:46
25,6 klux103,0 klux
12:36
3:30 Std 
13.
April
6,9 C2,9 C
02:47
12,3 C
16:27
1022,3 hPa1019,7 hPa
16:27
1025,0 hPa
02:47
17,6 km/h
W-NW
41,9 km/h
11:42  
---
66 %43 %
16:27
88 %
06:52
32 klux94 klux
12:52
4:36 Std 
14.
April
7,2 C1,2 C
06:38
13,6 C
17:33
1019,4 hPa1017,5 hPa
17:33
1021,0 hPa
08:03
2,8 km/h
NW
20,7 km/h
11:58  
---
64 %39 %
11:48
88 %
07:48
27,5 klux91,7 klux
13:08
4:35 Std 
15.
April
7,0 C-0,8 C
07:04
15,0 C
17:19
1021,4 hPa1019,4 hPa
00:04
1023,8 hPa
23:55
4,3 km/h
SO
24,0 km/h
16:39  
---
62 %33 %
17:19
88 %
07:59
27,7 klux100,0 klux
13:14
4:35 Std 
16.
April
8,5 C3,9 C
00:45
13,3 C
12:15
1023,3 hPa1022,7 hPa
12:15
1024,5 hPa
09:40
2,5 km/h
SO
18,3 km/h
12:35  
---
63 %39 %
14:30
85 %
08:05
19 klux63 klux
11:50
25 Min 
17.
April
10,5 C5,3 C
23:57
18,2 C
17:26
1024,7 hPa1023,1 hPa
17:26
1026,5 hPa
09:21
3,5 km/h
SO
21,2 km/h
14:21  
---
59 %29 %
17:11
82 %
07:16
26,0 klux92,1 klux
14:06
2:05 Std 
18.
April
10,6 C0,5 C
06:17
21,6 C
17:47
1021,8 hPa1016,7 hPa
18:42
1026,0 hPa
01:37
7,0 km/h
SO
28,3 km/h
12:42  
---
56 %27 %
16:47
87 %
06:57
41,9 klux79,8 klux
13:42
11:35 Std 
19.
April
12,6 C2,1 C
06:58
23,8 C
17:48
1017,0 hPa1014,2 hPa
17:48
1019,5 hPa
01:33
5,5 km/h
SO
25,7 km/h
12:28  
---
55 %25 %
13:03
86 %
07:43
42,8 klux75,8 klux
13:08
12:00 Std 
20.
April
13,7 C3,0 C
06:54
24,1 C
17:04
1016,4 hPa1014,2 hPa
17:04
1018,8 hPa
06:54
4,5 km/h
SO
32,5 km/h
12:14  
---
55 %25 %
12:59
86 %
07:59
40,3 klux75,4 klux
13:04
9:45 Std 
21.
April
15,0 C5,1 C
07:15
26,1 C
17:50
1015,5 hPa1011,9 hPa
18:50
1018,5 hPa
07:15
2,9 km/h
SO
20,8 km/h
16:00  
---
57 %24 %
17:15
87 %
08:00
36,9 klux81,6 klux
13:55
9:10 Std 
22.
April
16,5 C5,8 C
06:55
27,8 C
17:55
1011,3 hPa1007,5 hPa
17:55
1014,7 hPa
00:10
5,8 km/h
SO
29,6 km/h
13:10  
---
55 %24 %
17:35
87 %
07:10
39,9 klux75,4 klux
13:10
10:00 Std 
23.
April
17,4 C7,3 C
07:21
27,8 C
17:51
1010,7 hPa1008,6 hPa
17:51
1013,4 hPa
23:52
7,4 km/h
SO
27,1 km/h
14:56  
---
51 %22 %
16:36
87 %
08:11
42,8 klux77,2 klux
13:31
11:45 Std 
24.
April
16,5 C7,1 C
07:22
26,8 C
17:42
1015,3 hPa1012,4 hPa
00:22
1019,6 hPa
23:58
6,7 km/h
SO
20,6 km/h
15:57  
---
54 %26 %
17:37
88 %
07:52
40,1 klux75,8 klux
13:17
10:35 Std 
25.
April
14,6 C4,3 C
06:33
24,4 C
17:48
1019,4 hPa1017,2 hPa
17:48
1021,7 hPa
07:23
6,3 km/h
NO
24,5 km/h
14:53  
---
50 %23 %
17:53
83 %
07:53
42,8 klux76,7 klux
13:48
11:50 Std 
26.
April
11,8 C4,5 C
06:44
21,0 C
16:04
1019,0 hPa1015,6 hPa
16:09
1021,7 hPa
07:29
4,6 km/h
SO
27,2 km/h
17:29  
1,4 l/m
1:25 Stunden
70 %36 %
15:39
92 %
23:55
29,5 klux88,0 klux
13:24
5:00 Std 
27.
April
11,6 C6,4 C
06:55
18,3 C
14:15
1016,7 hPa1014,9 hPa
16:30
1018,4 hPa
06:55
3,8 km/h
SO
19,6 km/h
16:50  
2,1 l/m
2:31 Stunden
83 %54 %
14:00
97 %
07:35
27,1 klux92,9 klux
14:10
2:25 Std 
28.
April
13,4 C8,0 C
05:01
20,4 C
16:21
1013,4 hPa1010,5 hPa
19:01
1016,0 hPa
02:21
3,8 km/h
O-SO
23,3 km/h
13:41  
---
15 Minuten
79 %48 %
16:31
98 %
04:41
32,4 klux96,8 klux
12:41
5:26 Std 
29.
April
13,9 C7,5 C
07:12
22,6 C
14:22
1010,8 hPa1007,4 hPa
18:17
1013,0 hPa
07:12
6,7 km/h
SO
36,3 km/h
19:02  
0,3 l/m
50 Minuten
71 %36 %
14:02
94 %
07:52
33,9 klux87,0 klux
14:17
6:10 Std 
30.
April
12,6 C6,4 C
05:53
21,2 C
15:28
1008,8 hPa1006,2 hPa
15:28
1010,9 hPa
03:23
7,3 km/h
SO
30,6 km/h
17:03  
7,6 l/m
1:20 Stunden
76 %45 %
12:53
93 %
08:13
32,2 klux83,9 klux
15:13
6:25 Std 



April
2011

Temperatur

  

Luftdruck

  

Wind

  

Regen

  

Luftfeuchte

  

Helligkeit

Sonnen-
schein

Min

Max

Min

Max

Max

Max

Min

Max

Max

Max

12,1 C

-0,8 C

07:04 Uhr
15.04.2011

27,8 C

17:55 Uhr
22.04.2011

1019,1 hPa

1006,2 hPa

15:28 Uhr
30.04.2011

1029,9 hPa

12:05 Uhr
06.04.2011

8,1 km/h

SO

55,7 km/h

04:56 Uhr
12.04.2011

7,6 l/m

1:20 Stunden
30.04.2011

66 %

22 %

16:36 Uhr
23.04.2011

98 %

08:41 Uhr
02.04.2011

33,3 klux

103,0 klux

12:36 Uhr
12.04.2011

12:00 Std

am
19.04.2011

Gesamt

Gesamt

20,8 l/m

10 Tage
20:08 h

206:19 Std


Wetter-Diagramme April 2011     Heinzenberg / Taunus   
TemperaturLuftfeuchte
SolarstrahlungLuftdruck
HelligkeitSonnenschein
RegenmengeRegendauer
Wind-GeschwindigkeitWind-Richtung